Погода в Мауа

Бразилия     23°40′03″S   46°27′48″W
темп.,
°C
ветер,
м/с
пор.,
м/с
влажн.,
%
обл.,
%
осадки,
мм/ч
давл.,
гПа
погр.,
м
26 февраля, пт
пт2600:00+19ююв349359 0.1 1012264
03:00+19ююв238980 0.1 1011293
06:00+19ююв229183 0.7 1011222
09:00+22вюв227782 1.0 1013549
12:00+25юв336771 2.7 1013801
15:00+22ююв568177 7.9 1011531
18:00+20ююв469199 5.3 1011353
21:00+20юв2390100 7.4 1014269
27 февраля, сб
сб2700:00+20ююв129099 0.1 1013200
03:00+19ююв128998 0.1 1012187
06:00+19вюв018790 0.0 1013182
09:00+22вюв227295 0.3 1015461
12:00+24юв347187 1.4 1014599
15:00+24юв347164 5.4 1012753
18:00+22юв348493 3.8 1012428
21:00+21вюв128597 4.6 1014280
28 февраля, вс
вс2800:00+21вюв2377100 0.3 1014338
03:00+21всв247899 0.3 1013305
06:00+21в137788 0.0 1014291
09:00+23св236789 0.0 1015506
12:00+25ссв245682 0.0 1014742
15:00+27юв335375 0.2 10121191
18:00+23ююв457715 4.2 1012329
21:00+21юв238054 6.3 1013197
1 марта, пн
пн100:00+22всв1374100 0.0 1013224
03:00+21ссв257697 0.0 1011301
06:00+21ссв247884 0.3 1012194
09:00+26ссз245553 0.4 1013846
12:00+30с234016 0.1 10121873
15:00+27юв235558 2.2 10101034
18:00+24ююв3474100 2.5 1010295
21:00+23вюв1275100 2.9 1012176
2 марта, вт
вт200:00+23ссв126989 0.0 1012123
03:00+23с227180 0.0 1012108
06:00+22ссз236997 0.0 1013129
09:00+26с255699 0.0 1014946
12:00+29ссз4544100 0.0 10131592
15:00+30сз1342100 0.0 10111745
18:00+24ююв227291 4.7 1011296
21:00+24ююз117096 6.6 1013321